STARLINK-31840, 60127

Orbit data source: Space-Track

STARLINK-31840, 60127 is a payload satellite owned by SpaceX/Seattle (US) in LEO that was launched on Mon, 24 Jun 2024 UTC via an FALCON 9 launch vehicle from the Air Force Western Test Range (AFWTR). Payload-class satellites include a variety of spacecraft equipped with specific instruments for various scientific and technological missions. These include communications satellites like Starlink; space stations such as the ISS; scientific satellites like the Hubble; Earth observation satellites from companies like Planet Labs, Umbra, and HawkEye 360; GPS; miniature CubeSats for education and research; and military/defense satellites.

Loading next visibility...
Identifier
60127, 2024-118Q
Orbit
LEO
Last TLE update
10 hours ago
Origin
Manufacturer
SpaceX/Seattle
Mission
Operational Commercial Communications
Bus & Motor
STARLINK V2M, Unknown motor
Mass
730 kg wet, ~700 kg dry
Launch date (UTC)
2024-06-24 (1 year ago)
Launch vehicle
FALCON 9
Launch site
Air Force Western Test Range (AFWTR)
Object type
Payload
Rocket body
Debris
Shape & HBR
Box + 2 Pan, 29 m
Radar Cross Section
33.884 m², Large (>1 m²)

Expand to show TLE details & history

TLE from 10 hours ago
0 STARLINK-31840
1 60127U 24118Q   25189.92062247  .00000017  00000-0  12699-4 0  9998
2 60127  53.1596  79.0473 0001043  85.5163 274.5957 15.30190988 58379
Epoch: 2025-07-08T22:05Z
TLE epoch observation values (Epoch: 2025-07-08T22:05:41.781Z)
Latitude
-0.00001°
Longitude
-179.48548°
Altitude
476.084 km
Speed
7.629 km/s
True Right ascension
05h 16m 11s
True Declination
0° 00' 00"
Sunlit
Object was in daylight at epoch
Visualization orbit readout
Latitude
18.53214°
Longitude
-15.90128°
Altitude
475.355 km
Speed
7.631 km/s
Apparent Right ascension
13h 07m 40s
Apparent Declination
-17° 25' 41"
Sunlit
Object is in full shadow
Visualization observer readout
Local Sidereal Time
20:20:31
Azimuth
267.577° W
Elevation
-24.893°
Doppler factor
1
Orbital elements
Apogee altitude
476.213 km
Perigee altitude
474.784 km
Semi-major axis
6,853.635 km
Eccentricity
0.0001
Inclination
53.1596°
RAAN
79.0473°
Arg. of periapsis
85.5163°
True anomaly
Unknown
Mean anomaly
274.5957°
Eccentric anomaly
Unknown
Mean motion
3.82527 °/min
Orbital period
94.11 mins
BSTAR
0.000012699
Loading maneuver chart data...
Loading SW <> Apogee altitude chart data...
Loading historical data...
Loading historical data...
Loading historical data...
Loading historical data...
Loading historical data...
Loading historical data...
Loading historical data...

STARLINK-31840 Visibility forecast

Observer location: undefined°, undefined°

Span
Click to sort rows by Start time (UTC) header in descending order
Start Az.
Max El. time (UTC)
Max El. Az.
Max El.
End time (UTC)
End Az.
6 mins2025-07-09 18:37:54.510Z194.531° SSW2025-07-09 18:40:54.510Z125.467° SE28.971°2025-07-09 18:43:54.510Z67.868° E
5 mins2025-07-09 20:16:54.510Z282.763° WNW2025-07-09 20:18:54.510Z339.119° N27.06°2025-07-09 20:21:54.510Z33.695° NE
4 mins2025-07-10 01:13:54.510Z343.97° N2025-07-10 01:15:54.510Z44.118° NE28.164°2025-07-10 01:17:54.510Z88.655° E
4 mins2025-07-10 02:51:54.510Z270.678° WNW2025-07-10 02:53:54.510Z211.715° SW26.406°2025-07-10 02:55:54.510Z171.598° S
|